User: anonymous   Login
Location: Unspecified
(0.0000°N, 0.0000°E)
Time: 00:12:58
(UTC+00:00)
Language:

ICO F2 - Orbit

View from above orbital plane
View from above orbital plane
View from above satellite
View from above satellite

Ground track
Ground track

The orbit data is extracted from the following two-line orbital elements,

1 26857U 01026A   18112.42766264 -.00000017  00000-0  00000+0 0  9995
2 26857  44.8028 210.6892 0014759  45.9823 314.1754  3.92403396244397
Epoch (UTC): 22 April 2018 10:15:50
Eccentricity: 0.0014759
inclination: 44.8028°
perigee height: 10576 km
apogee height: 10626 km
right ascension of ascending node: 210.6892°
argument of perigee: 45.9823°
revolutions per day: 3.92403396
mean anomaly at epoch: 314.1754°
orbit number at epoch: 24439

The dashed part of the orbit path shows where the satellite is in the earth's shadow,  

DLR